World > North America > United States > Utah

West Weber, Utah Regional Weather

Lat: 41.25N, Lon: 112.08W
Wx Zone: UTZ002Web Search

Helpful Tip: Abbreviated, 7 Day, 14 Day Forecasts. There is a weather forecast for every taste.

Feedback


°F Click to change West Weber hourly weather to Imperial units.Click to change West Weber hourly weather to Metric units. °C
West Weber Weather Map
UTC Time: 4/10/2021, 12:40
Your Time:

West Weber, UT Regional Weather

Expires:202104101300;;329463
ASUS45 KSLC 101210
RWRUT 

UTAH REGIONAL WEATHER ROUNDUP
NATIONAL WEATHER SERVICE SALT LAKE CITY UT
600 AM MDT SAT APR 10 2021


UTZ001>011-023>025-101300-

NORTHERN UTAH
  
CITY           SKY/WX    TMP DP  RH WIND       PRES   REMARKS
BRIGHAM CITY   CLEAR     31  20  65 CALM      30.00F                  
HILL AFB       CLEAR     37   9  31 E18       29.98F WCI  27          
LOGAN          CLEAR     24  20  84 CALM      30.00F                  
OGDEN          CLEAR     39  12  33 S10       29.98F WCI  32          
SALT LAKE CITY CLEAR     40  19  43 S7        29.98F                  
TOOELE VALLEY  CLEAR     34  21  60 S9        29.99F WCI  26          
WENDOVER       PTCLDY    34  14  43 W5        29.99F WCI  30          
HEBER CITY       N/A     19  10  68 CALM      30.04F                  
WEST JORDAN    CLEAR     38  27  63 SE6       29.99F WCI  33          

$$


SKY/WX - Weather  TMP - Temperature  DP - Dew Point  RH - Relative Humidity
WIND - Wind Direction/Speed PRES - Barometric Pressure VSB - Visibility
WCI - Wind Chill Index E13G22 Wind - East Wind 13 mph/Gusts of 22 mph